Regional Weather Roundup
Issued by NWS

Home | Current Version | Previous Version | Text Only | Print | Product List | Glossary Off
Versions: 1 2 3 4 5 6 7 8 9 10 11 12 13 14 15 16 17 18 19 20 21 22 23 24 25 26 27 28 29 30 31 32 33 34 35 36 37 38 39 40 41 42 43 44 45 46 47 48 49 50

000
ASUS43 KDTX 010910
RWRMI
MICHIGAN HOURLY REGIONAL WEATHER ROUNDUP
NATIONAL WEATHER SERVICE DETROIT/PONTIAC MI
400 AM EST SUN MAR 01 2015

NOTE: "FAIR" INDICATES FEW OR NO CLOUDS BELOW 12,000 FEET WITH NO
SIGNIFICANT WEATHER AND/OR OBSTRUCTION TO VISIBILITY.

MIZ047>049-052>055-059>063-066>070-074>076-081>083-011000-
SOUTHEAST LOWER MICHIGAN

CITY           SKY/WX    TMP DP  RH WIND       PRES   REMARKS
ADRIAN         LGT SNOW  14  11  87 E3        30.42F FOG
ALMA           LGT SNOW  14  10  85 S3        30.43S
ANN ARBOR      LGT SNOW  14  11  87 E5        30.40F FOG
BAD AXE        CLOUDY    13   6  73 S6        30.43F
DETROIT CITY   LGT SNOW  16  11  80 E3        30.44F
DETROIT        LGT SNOW  16  12  84 E5        30.44F FOG
FLINT          LGT SNOW  15  10  80 S3        30.42F
GROSSE ILE     LGT SNOW  16  10  79 NE3       30.43F
HILLSDALE      LGT SNOW  14  11  88 CALM      30.36F
HOWELL         LGT SNOW  13  10  87 SE3       30.40F

CITY           SKY/WX    TMP DP  RH WIND       PRES   REMARKS
JACKSON        LGT SNOW  14  10  84 SE3       30.39F FOG
LAMBERTVILLE   LGT SNOW  18  14  86 CALM      30.43F
LANSING        LGT SNOW  13   9  84 S3        30.42F FOG
LAPEER         NOT AVBL
MASON          LGT SNOW  13   9  84 CALM      30.41S
MONROE         LGT SNOW  16  12  86 CALM      30.42F
MT. CLEMENS    LGT SNOW  12   9  85 E5        30.43F FOG
PONTIAC        LGT SNOW  13   9  84 SE3       30.40F FOG
PORT HOPE        N/A     13   2  61 VRB5      30.43F
PORT HURON     LGT SNOW  12   9  85 SE5       30.45F
TRI CITIES     FLURRIES  16   8  71 S7        30.43F
YPSILANTI      LGT SNOW  18  11  74 E3        30.43F
$$
MIZ043>046-050>051-056>058-064>065-071>073-077>080-011000-
SOUTHWEST LOWER MICHIGAN

CITY           SKY/WX    TMP DP  RH WIND       PRES   REMARKS
BATTLE CREEK   LGT SNOW  15  10  80 CALM      30.39F
BENTON HARBOR  CLOUDY    14  12  92 CALM      30.41F FOG
BIG RAPIDS       N/A      9   1  70 CALM      30.37F
COLDWATER      FLURRIES  15  11  85 CALM      30.38F
HOLLAND        CLOUDY    13   9  84 SE3       30.42F FOG
GRAND RAPIDS   CLOUDY    12   8  84 CALM      30.41F FOG
KALAMAZOO      LGT SNOW  14  10  84 CALM      30.39F FOG
MARSHALL       FLURRIES  13  10  87 CALM      30.39F
MUSKEGON       LGT SNOW  16  12  84 SE8       30.41F FOG
$$
MIZ016>042-011000-
NORTHERN LOWER MICHIGAN

CITY           SKY/WX    TMP DP  RH WIND       PRES   REMARKS
ALPENA         CLOUDY     9   1  70 S3        30.40F
BEAVER ISLAND  CLOUDY    16   8  68 S6        30.33F
BELLAIRE       CLOUDY     5  -1  77 CALM      30.38F
CADILLAC       PTCLDY    10   0  61 S3        30.32F
CHARLEVOIX     CLOUDY    15   4  59 S6        30.38F
FRANKFORT      FLURRIES  17  10  73 CALM      30.37F
GAYLORD        PTCLDY     7  -2  66 S7        30.31F
GRAYLING       MOCLDY    10  -1  59 CALM      30.35F
HARBOR SPRINGS CLOUDY    13   3  64 SW5       30.34F
HOUGHTON LAKE  MOCLDY     9  -1  64 CALM      30.36F
MANISTEE       MOCLDY    16   9  73 S3        30.38F
OSCODA         CLOUDY    11   2  68 SW6       30.42F
PELLSTON       CLOUDY     6   2  83 S3        30.35F
TRAVERSE CITY  CLOUDY    14   3  61 SE3       30.36F
$$
MIZ007>008-015-011000-
EASTERN UPPER MICHIGAN

CITY           SKY/WX    TMP DP  RH WIND       PRES   REMARKS
KINROSS        CLOUDY    10   7  85 S7        30.32F
MACKINAC ISLAN CLOUDY    12   5  74 S7        30.33F
NEWBERRY       CLOUDY    10   8  92 S6        30.30F
S. S. MARIE    CLOUDY     3  -2  79 E3        30.33F
$$
MIZ004>006-011>014-085-011000-
CENTRAL UPPER MICHIGAN

CITY           SKY/WX    TMP DP  RH WIND       PRES   REMARKS
MANISTIQUE     CLOUDY    15   3  59 SW7       30.31F
ESCANABA       CLOUDY    12   1  62 SW7       30.33F
MENOMINEE      CLOUDY    16   1  53 W6        30.33F
SAWYER-GWINN   CLOUDY    10   0  63 SW10      30.22F WCI  -4
$$
MIZ001>003-009>011-084-011000-
WESTERN UPPER MICHIGAN

CITY           SKY/WX    TMP DP  RH WIND       PRES   REMARKS
IRON MOUNTAIN  PTCLDY     9  -2  61 S6        30.24F
HOUGHTON       CLOUDY    14  -1  51 SW12      30.17F
COPPER HARBOR    N/A     15  -1  49 VRB5      30.20F
IRONWOOD       CLOUDY    12   3  67 SW12      30.16F WCI  -2
$$

ABBREVIATIONS USED IN REMARKS
   TC - TEMPERATURE IN CELSIUS
  WCI - WIND CHILL INDEX
   HX - HEAT INDEX
  VSB - VISIBILITY




USA.gov is the U.S. government's official web portal to all federal, state and local government web resources and services.